Location: Peyton Hall Observatory
(40.3466°N, 74.6516°W)
Time: 00:24:35
(UTC-04:00)

ISS - All Passes

Search period start: 02 September 2014 00:00
Search period end: 12 September 2014 00:00
Orbit: 414 x 419 km, 51.6° (Epoch: 01 September)

Date Brightness Start Highest point End Pass type
(mag) Time Alt. Az. Time Alt. Az. Time Alt. Az.
02 Sep - 09:47:56 10° SW 09:51:14 68° SE 09:54:32 10° ENE daylight
02 Sep - 11:25:36 10° WNW 11:28:14 21° NNW 11:30:52 10° NNE daylight
02 Sep - 13:04:35 10° NNW 13:05:56 12° N 13:07:17 10° NNE daylight
02 Sep - 14:41:16 10° NNW 14:43:42 19° NNE 14:46:08 10° ENE daylight
02 Sep - 16:17:29 10° NW 16:20:49 88° NE 16:24:09 10° SE daylight
03 Sep - 08:59:40 10° SSW 09:02:45 36° SE 09:05:50 10° ENE daylight
03 Sep - 10:36:33 10° W 10:39:31 29° NNW 10:42:29 10° NE daylight
03 Sep - 12:15:32 10° NW 12:17:05 13° N 12:18:38 10° NNE daylight
03 Sep - 13:52:52 10° NNW 13:54:54 15° NNE 13:56:56 10° NE daylight
03 Sep - 15:28:58 10° NW 15:32:14 51° NNE 15:35:29 10° ESE daylight
03 Sep - 17:06:24 10° W 17:08:41 18° SW 17:10:59 10° S daylight
04 Sep - 08:11:45 10° S 08:14:18 21° SE 08:16:51 10° E daylight
04 Sep - 09:47:38 10° WSW 09:50:50 44° NNW 09:54:02 10° NE daylight
04 Sep - 11:26:19 10° NW 11:28:13 14° NNW 11:30:07 10° NNE daylight
04 Sep - 13:04:24 10° NNW 13:06:03 13° N 13:07:42 10° NE daylight
04 Sep - 14:40:30 10° NW 14:43:34 32° NNE 14:46:36 10° E daylight
04 Sep - 16:17:17 10° WNW 16:20:15 30° SW 16:23:13 10° SSE daylight
05 Sep - 07:24:38 10° SSE 07:25:53 12° SE 07:27:09 10° ESE daylight
05 Sep - 08:58:52 10° WSW 09:02:11 75° NW 09:05:31 10° NE daylight
05 Sep - 10:37:04 10° WNW 10:39:22 17° NNW 10:41:41 10° NNE daylight
05 Sep - 12:15:45 10° NNW 12:17:09 12° N 12:18:32 10° NNE daylight
05 Sep - 13:52:04 10° NNW 13:54:49 23° NNE 13:57:33 10° ENE daylight
05 Sep - 15:28:28 10° WNW 15:31:44 56° SW 15:35:00 10° SE daylight
06 Sep - 08:10:18 10° SW 08:13:35 61° SE 08:16:52 10° ENE daylight
06 Sep - 09:47:51 10° WNW 09:50:32 22° NNW 09:53:14 10° NNE daylight
06 Sep - 11:26:51 10° NNW 11:28:13 12° N 11:29:35 10° NNE daylight
06 Sep - 13:03:37 10° NNW 13:05:59 18° NNE 13:08:21 10° ENE daylight
06 Sep - 14:39:48 10° NW 14:43:08 81° NE 14:46:28 10° SE daylight
06 Sep - 16:18:33 10° WSW 16:19:24 11° SW 16:20:15 10° SW daylight
07 Sep - 07:22:00 10° SSW 07:25:01 33° SE 07:28:03 10° ENE daylight
07 Sep - 08:58:44 10° W 09:01:44 31° NNW 09:04:45 10° NE daylight
07 Sep - 10:37:40 10° NW 10:39:16 13° N 10:40:52 10° NNE daylight
07 Sep - 12:15:08 10° NNW 12:17:06 15° NNE 12:19:03 10° NE daylight
07 Sep - 13:51:13 10° NW 13:54:27 47° NNE 13:57:40 10° ESE daylight
07 Sep - 15:28:30 10° W 15:30:57 19° SW 15:33:23 10° S daylight
08 Sep - 06:34:04 10° S 06:36:29 19° SE 06:38:55 10° E daylight
08 Sep - 08:09:45 10° WSW 08:12:59 48° NNW 08:16:13 10° NE daylight
08 Sep - 09:48:21 10° NW 09:50:20 15° NNW 09:52:18 10° NNE daylight
08 Sep - 11:26:33 10° NNW 11:28:09 13° N 11:29:44 10° NE daylight
08 Sep - 13:02:40 10° NW 13:05:41 30° NNE 13:08:41 10° E daylight
08 Sep - 14:39:22 10° WNW 14:42:25 34° SW 14:45:27 10° SSE daylight
09 Sep - 05:47:17 10° SE 05:48:00 11° SE 05:48:44 10° ESE visible
09 Sep - 07:20:56 10° SW 07:24:15 82° NW 07:27:35 10° NE daylight
09 Sep - 08:59:01 10° WNW 09:01:24 18° NNW 09:03:46 10° NNE daylight
09 Sep - 10:37:47 10° NNW 10:39:09 12° N 10:40:31 10° NNE daylight
09 Sep - 12:14:09 10° NNW 12:16:50 22° NNE 12:19:31 10° ENE daylight
09 Sep - 13:50:30 10° WNW 13:53:48 62° SW 13:57:05 10° SE daylight
10 Sep - 06:32:19 10° SW 06:35:34 55° SE 06:38:50 10° ENE daylight
10 Sep - 08:09:44 10° W 08:12:29 23° NNW 08:15:15 10° NNE daylight
10 Sep - 09:48:44 10° NNW 09:50:08 12° N 09:51:32 10° NNE daylight
10 Sep - 11:25:37 10° NNW 11:27:55 17° NNE 11:30:12 10° ENE daylight
10 Sep - 13:01:46 10° NW 13:05:06 73° NE 13:08:25 10° ESE daylight
10 Sep - 14:40:03 10° WSW 14:41:23 12° SW 14:42:44 10° SSW daylight
11 Sep - 05:43:59 10° SSW 05:46:56 30° SE 05:49:53 10° ENE visible
11 Sep - 07:20:33 10° W 07:23:36 33° NNW 07:26:40 10° NE daylight
11 Sep - 08:59:26 10° NW 09:01:06 13° N 09:02:46 10° NNE daylight
11 Sep - 10:37:02 10° NNW 10:38:55 14° NNE 10:40:49 10° NE daylight
11 Sep - 12:13:06 10° NW 12:16:19 43° NNE 12:19:30 10° ESE daylight
11 Sep - 13:50:15 10° W 13:52:50 21° SW 13:55:25 10° S daylight
